Regional Weather Roundup
Issued by NWS

Home | Current Version | Previous Version | Text Only | Print | Product List | Glossary On
Versions: 1 2 3 4 5 6 7 8 9 10 11 12 13 14 15 16 17 18 19 20 21 22 23 24 25 26 27 28 29 30 31 32 33 34 35 36 37 38 39 40 41 42 43 44 45 46 47 48 49 50
000
ASUS43 KFSD 231910
RWRSD

WEATHER ROUNDUP FOR SOUTH DAKOTA
NATIONAL WEATHER SERVICE SIOUX FALLS SD
200 PM CDT SAT MAY 23 2015

NOTE: "FAIR" INDICATES FEW OR NO CLOUDS BELOW 12,000 FEET WITH NO
SIGNIFICANT WEATHER AND/OR OBSTRUCTIONS TO VISIBILITY.


SDZ001>005-009-010-012>017-232000-
NORTHWEST AND NORTH CENTRAL SOUTH DAKOTA

CITY           SKY/WX    TMP DP  RH WIND       PRES   REMARKS
BUFFALO          N/A     55  46  71 SE14      30.01F
FAITH            N/A     56  46  69 E14       30.09F
MOBRIDGE       CLOUDY    62  49  62 SE10      30.10F
$$

SDZ012>016-024>037-041>051-057-063-072>074-232000-
SOUTHWEST AND SOUTH CENTRAL SOUTH DAKOTA

CITY           SKY/WX    TMP DP  RH WIND       PRES   REMARKS
RAPID CTY ARPT CLOUDY    55  47  74 SE12      30.05F
PIERRE         CLOUDY    54  53  97 E8        30.10F FOG
CUSTER         CLOUDY    50  44  80 S6        30.07S
ELLSWORTH AFB  CLOUDY    56  48  76 SE13      30.05F
PHILIP         CLOUDY    60  51  72 E9        30.07F
PINE RIDGE     CLOUDY    60  50  69 SE13      30.04F
SPEARFISH      LGT RAIN  54  48  82 E13       30.03R
WINNER         CLOUDY    58  53  84 SE13      30.10F
$$

SDZ004>011-016>023-039-040-232000-
NORTHEAST SOUTH DAKOTA

CITY           SKY/WX    TMP DP  RH WIND       PRES   REMARKS
ABERDEEN       CLOUDY    64  50  60 SE8       30.15F
WATERTOWN      CLOUDY    66  45  46 S14       30.16F
BROOKINGS      CLOUDY    63  48  59 S12G20    30.17F
SISSETON         N/A     69  43  38 S15G21    30.15F
$$

SDZ017-020-022-023-036>040-048>070-232000-
SOUTHEAST SOUTH DAKOTA

CITY           SKY/WX    TMP DP  RH WIND       PRES   REMARKS
SIOUX FALLS    CLOUDY    65  50  58 SE16      30.15F
HURON          CLOUDY    66  49  54 SE17G24   30.13F
CHAMBERLAIN    CLOUDY    56  55  94 SE7       30.12F
MITCHELL       CLOUDY    64  51  62 S16       30.14F
YANKTON        CLOUDY    61  54  77 S10       30.14F
$$

ABBREVIATIONS USED IN REMARKS
   TC - TEMPERATURE IN CELSIUS
  WCI - WIND CHILL INDEX
   HX - HEAT INDEX
  VSB - VISIBILITY




USA.gov is the U.S. government's official web portal to all federal, state and local government web resources and services.